Regional Weather Roundup
Issued by NWS

Home | Current Version | Previous Version | Text Only | Print | Product List | Glossary On
Versions: 1 2 3 4 5 6 7 8 9 10 11 12 13 14 15 16 17 18 19 20 21 22 23 24 25 26 27 28 29 30 31 32 33 34 35 36 37 38 39 40 41 42 43 44 45 46 47 48 49 50
000
ASUS43 KOAX 072310
RWRNE

WEATHER ROUNDUP FOR NEBRASKA
NATIONAL WEATHER SERVICE OMAHA NE
500 PM CST WED DEC 07 2016

NOTES: SATELLITE DATA IS BEING USED TO AUGMENT CLOUD COVER ABOVE
       12000 FEET.
       "FAIR" INDICATES FEW OR NO CLOUDS BELOW 12,000 FEET WITH NO
       SIGNIFICANT WEATHER AND/OR OBSTRUCTIONS TO VISIBILITY.

  * THESE STATIONS DO NOT REPORT WEATHER SUCH AS RAIN...SNOW OR FOG.

NEZ001>004-019>022-054>056-080000-
NEBRASKA PANHANDLE

CITY           SKY/WX    TMP DP  RH WIND       PRES   REMARKS
SCOTTSBLUFF    CLEAR     11  -2  56 NW12      30.36R WCI  -3
ALLIANCE       CLEAR     11  -1  58 NW15      30.32R WCI  -5
CHADRON        CLEAR     11  -5  48 NW21G29   30.40R WCI  -8
KIMBALL        CLEAR      8   1  70 NW14      30.28R WCI  -8
SIDNEY         CLEAR     10   0  63 N14       30.31R WCI  -6
$$

NEZ057>060-069>072-079>082-080000-
SOUTHWEST NEBRASKA

CITY           SKY/WX    TMP DP  RH WIND       PRES   REMARKS
NORTH PLATTE   PTCLDY    18   5  57 NW10      30.36R WCI   6
IMPERIAL       MOCLDY    14   7  73 N14       30.36R WCI  -1
LEXINGTON      CLOUDY    21   3  45 NW16      30.37R WCI   7
MCCOOK         CLOUDY    18  11  74 NW8       30.39R WCI   8
OGALLALA       CLEAR     16   6  64 NW9       30.36R WCI   5
$$

NEZ005>010-023>029-035>040-094-080000-
NORTH CENTRAL NEBRASKA

CITY           SKY/WX    TMP DP  RH WIND       PRES   REMARKS
VALENTINE      CLEAR     13  -1  54 NW23G31   30.37R WCI  -6
AINSWORTH      CLEAR     14   3  61 NW18G24   30.37R WCI  -3
BROKEN BOW     CLEAR     19   1  45 NW16      30.35R WCI   4
O`NEILL        CLEAR     16   3  56 NW16G22   30.36R WCI   1
ORD            CLEAR     18   0  45 NW13      30.36R WCI   5
THEDFORD       CLEAR     17   2  53 NW16      30.36R WCI   1
$$

NEZ041-046>049-061>064-073>077-083>087-080000-
SOUTH CENTRAL NEBRASKA

CITY           SKY/WX    TMP DP  RH WIND       PRES   REMARKS
GRAND ISLAND   CLEAR     21   4  47 NW15      30.37R WCI   8
AURORA         CLEAR     21   4  46 NW12      30.37R WCI   9
HASTINGS       CLEAR     21   2  43 NW13      30.38R WCI   9
HEBRON         CLEAR     23   7  49 NW7       30.39R WCI  15
HOLDREGE       CLEAR     20   4  50 NW7       30.37R WCI  11
KEARNEY *      PTCLDY    21   0  39 NW15      30.37R WCI   8
YORK           CLEAR     21   5  49 NW12      30.37R WCI   9
$$

NEZ011>018-030>034-042>045-080000-
NORTHEAST NEBRASKA

CITY           SKY/WX    TMP DP  RH WIND       PRES   REMARKS
NORFOLK        CLEAR     17   2  51 NW18      30.34R WCI   1
ALBION         CLEAR     19   2  48 NW15G22   30.36R WCI   4
BLAIR          CLEAR     22   9  55 W8        30.32S WCI  13
FREMONT        CLEAR     22   7  52 W16       30.35R WCI   8
TEKAMAH        CLEAR     21   7  54 NW22      30.35R WCI   5
WAYNE          CLEAR     18   5  56 NW13G20   30.34R WCI   4
$$

NEZ050>053-065>068-078-088>093-080000-
SOUTHEAST NEBRASKA

CITY           SKY/WX    TMP DP  RH WIND       PRES   REMARKS
LINCOLN        CLEAR     24   5  44 NW10      30.39R WCI  14
OMAHA EPPLEY   PTCLDY    23   6  48 W12       30.35R WCI  12
BEATRICE       CLEAR     23   8  50 NW13      30.38R WCI  12
FALLS CITY     CLEAR     24   8  50 NW13      30.37R WCI  12
NEBRASKA CITY  CLEAR     23   5  45 NW13      30.36R WCI  11
PLATTSMOUTH    PTCLDY    23   4  44 NW10      30.35R WCI  12
$$

NEZ044-045-051>053-067-080000-
OMAHA AREA

CITY           SKY/WX    TMP DP  RH WIND       PRES   REMARKS
OMAHA EPPLEY   PTCLDY    23   6  48 W12       30.35R WCI  12
BLAIR          CLEAR     22   9  55 W8        30.32S WCI  13
FREMONT        CLEAR     22   7  52 W16       30.35R WCI   8
MILLARD        CLEAR     24   7  48 W10       30.35S WCI  13
OFFUTT AFB     CLEAR     22   7  51 NW9       30.35R WCI  12
PLATTSMOUTH    PTCLDY    23   4  44 NW10      30.35R WCI  12
WAHOO          FAIR      23   7  50 NW12G17   30.36R WCI  11
$$




USA.gov is the U.S. government's official web portal to all federal, state and local government web resources and services.